Time,TemperatureF,DewpointF,PressureIn,WindDirection,WindDirectionDegrees,WindSpeedMPH,WindSpeedGustMPH,Humidity,HourlyPrecipIn,Conditions,Clouds,dailyrainin,SoftwareType,DateUTC
2013-03-25 00:05:00,21.2,16.0,30.08,NNW,338,2.5,2.5,80,0.00,,CLR,0.00,VWS V14.01,2013-03-25 05:05:00,
2013-03-25 00:10:00,21.2,16.0,30.08,NNW,338,2.5,2.5,80,0.00,,CLR,0.00,VWS V14.01,2013-03-25 05:10:00,
2013-03-25 00:15:00,21.0,15.8,30.08,NNW,338,2.0,2.5,80,0.00,,CLR,0.00,VWS V14.01,2013-03-25 05:15:00,
2013-03-25 00:20:00,21.0,15.8,30.08,NNW,338,0.4,2.5,80,0.00,,CLR,0.00,VWS V14.01,2013-03-25 05:20:00,
2013-03-25 00:25:00,21.0,15.8,30.07,NNW,338,0.7,2.0,80,0.00,,CLR,0.00,VWS V14.01,2013-03-25 05:25:00,
2013-03-25 00:30:00,20.8,15.6,30.07,NNW,338,0.7,1.8,80,0.00,,CLR,0.00,VWS V14.01,2013-03-25 05:30:00,
2013-03-25 00:35:00,20.8,15.6,30.07,NNW,338,0.7,1.1,80,0.00,,CLR,0.00,VWS V14.01,2013-03-25 05:35:00,
2013-03-25 00:40:00,20.6,15.4,30.08,NNW,338,0.0,1.6,80,0.00,,CLR,0.00,VWS V14.01,2013-03-25 05:40:00,
2013-03-25 00:45:00,20.6,15.4,30.07,NNW,338,1.1,1.1,80,0.00,,CLR,0.00,VWS V14.01,2013-03-25 05:45:00,
2013-03-25 00:50:00,20.5,15.3,30.07,NNW,338,0.4,1.8,80,0.00,,CLR,0.00,VWS V14.01,2013-03-25 05:50:00,
2013-03-25 00:55:00,20.5,15.3,30.07,NNW,338,0.9,2.2,80,0.00,,CLR,0.00,VWS V14.01,2013-03-25 05:55:00,
2013-03-25 01:05:00,20.3,15.1,30.07,NNW,338,0.2,0.9,80,0.00,,CLR,0.00,VWS V14.01,2013-03-25 06:05:00,
2013-03-25 01:10:00,20.3,15.1,30.07,NNW,338,1.1,2.5,80,0.00,,CLR,0.00,VWS V14.01,2013-03-25 06:10:00,
2013-03-25 01:15:00,20.1,14.9,30.07,NNW,338,1.8,2.2,80,0.00,,CLR,0.00,VWS V14.01,2013-03-25 06:15:00,
2013-03-25 01:20:00,20.1,14.9,30.07,NNW,338,1.8,2.5,80,0.00,,CLR,0.00,VWS V14.01,2013-03-25 06:20:00,
2013-03-25 01:25:00,19.9,14.7,30.07,NNW,338,0.9,2.0,80,0.00,,CLR,0.00,VWS V14.01,2013-03-25 06:25:00,
2013-03-25 01:35:00,19.9,14.7,30.07,NNW,338,1.1,2.2,80,0.00,,CLR,0.00,VWS V14.01,2013-03-25 06:35:00,
2013-03-25 01:40:00,19.7,14.5,30.07,NNW,338,2.0,2.0,80,0.00,,CLR,0.00,VWS V14.01,2013-03-25 06:40:00,
2013-03-25 01:45:00,19.7,14.5,30.07,NNW,338,0.9,2.0,80,0.00,,CLR,0.00,VWS V14.01,2013-03-25 06:45:00,
2013-03-25 01:50:00,19.7,14.8,30.07,NNW,338,1.1,2.2,81,0.00,,CLR,0.00,VWS V14.01,2013-03-25 06:50:00,
2013-03-25 01:55:00,19.6,14.7,30.07,NNW,338,0.7,1.1,81,0.00,,CLR,0.00,VWS V14.01,2013-03-25 06:55:00,
2013-03-25 02:05:00,19.6,14.7,30.07,NNW,338,2.0,2.9,81,0.00,,CLR,0.00,VWS V14.01,2013-03-25 07:05:00,
2013-03-25 02:10:00,19.6,14.7,30.07,NNW,338,0.4,2.0,81,0.00,,CLR,0.00,VWS V14.01,2013-03-25 07:10:00,
2013-03-25 02:15:00,19.4,14.5,30.07,NNW,338,0.4,2.5,81,0.00,,CLR,0.00,VWS V14.01,2013-03-25 07:15:00,
2013-03-25 02:20:00,19.4,14.5,30.07,NNW,338,1.3,1.3,81,0.00,,CLR,0.00,VWS V14.01,2013-03-25 07:20:00,
2013-03-25 02:25:00,19.2,14.3,30.07,NNW,338,1.3,1.3,81,0.00,,CLR,0.00,VWS V14.01,2013-03-25 07:25:00,
2013-03-25 02:30:00,19.2,14.3,30.07,NNW,338,0.0,1.3,81,0.00,,CLR,0.00,VWS V14.01,2013-03-25 07:30:00,
2013-03-25 02:35:00,19.2,14.3,30.07,NNW,338,0.0,0.7,81,0.00,,CLR,0.00,VWS V14.01,2013-03-25 07:35:00,
2013-03-25 02:40:00,19.0,14.1,30.07,NNW,338,0.4,0.9,81,0.00,,CLR,0.00,VWS V14.01,2013-03-25 07:40:00,
2013-03-25 02:45:00,19.0,14.1,30.07,NNW,338,0.4,1.1,81,0.00,,CLR,0.00,VWS V14.01,2013-03-25 07:45:00,
2013-03-25 02:50:00,19.0,14.4,30.07,NNW,338,1.1,2.2,82,0.00,,CLR,0.00,VWS V14.01,2013-03-25 07:50:00,
2013-03-25 02:55:00,19.0,14.4,30.07,NNW,338,0.7,1.8,82,0.00,,CLR,0.00,VWS V14.01,2013-03-25 07:55:00,
2013-03-25 03:05:00,19.2,14.6,30.07,NNW,338,0.7,1.1,82,0.00,,CLR,0.00,VWS V14.01,2013-03-25 08:05:00,
2013-03-25 03:10:00,19.2,14.6,30.06,NNW,338,1.8,1.8,82,0.00,,CLR,0.00,VWS V14.01,2013-03-25 08:10:00,
2013-03-25 03:15:00,19.2,14.6,30.07,NNW,338,1.6,2.5,82,0.00,,CLR,0.00,VWS V14.01,2013-03-25 08:15:00,
2013-03-25 03:20:00,19.0,14.4,30.06,NNW,338,0.4,1.6,82,0.00,,CLR,0.00,VWS V14.01,2013-03-25 08:20:00,
2013-03-25 03:25:00,19.0,14.4,30.06,NNW,338,0.9,1.3,82,0.00,,CLR,0.00,VWS V14.01,2013-03-25 08:25:00,
2013-03-25 03:35:00,19.0,14.4,30.06,NNW,338,1.1,1.6,82,0.00,,CLR,0.00,VWS V14.01,2013-03-25 08:35:00,
2013-03-25 03:40:00,19.0,14.4,30.06,NNW,338,1.1,2.2,82,0.00,,CLR,0.00,VWS V14.01,2013-03-25 08:40:00,
2013-03-25 03:45:00,19.0,14.4,30.06,NNW,338,1.6,1.8,82,0.00,,CLR,0.00,VWS V14.01,2013-03-25 08:45:00,
2013-03-25 03:50:00,19.0,14.4,30.06,NNW,338,2.7,2.7,82,0.00,,CLR,0.00,VWS V14.01,2013-03-25 08:50:00,
2013-03-25 03:55:00,19.0,14.4,30.06,NNW,338,2.2,2.7,82,0.00,,CLR,0.00,VWS V14.01,2013-03-25 08:55:00,
2013-03-25 04:05:00,19.2,14.6,30.06,NNW,338,2.7,2.7,82,0.00,,CLR,0.00,VWS V14.01,2013-03-25 09:05:00,
2013-03-25 04:10:00,19.2,14.6,30.06,NNW,338,0.4,2.7,82,0.00,,CLR,0.00,VWS V14.01,2013-03-25 09:10:00,
2013-03-25 04:15:00,19.2,14.6,30.06,NNW,338,2.5,2.5,82,0.00,,BKN039,0.00,VWS V14.01,2013-03-25 09:15:00,
2013-03-25 04:20:00,19.2,14.6,30.06,NNW,338,0.4,2.5,82,0.00,,BKN039,0.00,VWS V14.01,2013-03-25 09:20:00,
2013-03-25 04:25:00,19.2,14.6,30.06,NNW,338,1.1,2.2,82,0.00,,BKN039,0.00,VWS V14.01,2013-03-25 09:25:00,
2013-03-25 04:30:00,19.2,14.9,30.06,NNW,338,1.8,1.8,83,0.00,,BKN039,0.00,VWS V14.01,2013-03-25 09:30:00,
2013-03-25 04:35:00,19.6,15.3,30.06,NNW,338,1.1,2.2,83,0.00,,BKN039,0.00,VWS V14.01,2013-03-25 09:35:00,
2013-03-25 04:40:00,19.6,15.3,30.06,NNW,338,1.6,2.5,83,0.00,,BKN039,0.00,VWS V14.01,2013-03-25 09:40:00,
2013-03-25 04:45:00,19.6,15.3,30.07,NNW,338,1.1,3.8,83,0.00,,BKN039,0.00,VWS V14.01,2013-03-25 09:45:00,
2013-03-25 04:50:00,19.7,15.4,30.07,NNW,338,1.1,2.0,83,0.00,,BKN039,0.00,VWS V14.01,2013-03-25 09:50:00,
2013-03-25 04:55:00,19.9,15.6,30.07,NNW,338,2.9,3.6,83,0.00,,BKN039,0.00,VWS V14.01,2013-03-25 09:55:00,
2013-03-25 05:05:00,20.1,15.8,30.07,NNW,338,1.6,3.4,83,0.00,,BKN039,0.00,VWS V14.01,2013-03-25 10:05:00,
2013-03-25 05:10:00,20.1,15.8,30.07,NNW,338,1.1,3.6,83,0.00,,BKN039,0.00,VWS V14.01,2013-03-25 10:10:00,
2013-03-25 05:15:00,20.3,16.2,30.07,NNW,338,1.1,2.2,84,0.00,,OVC015,0.00,VWS V14.01,2013-03-25 10:15:00,
2013-03-25 05:20:00,20.3,16.0,30.07,NNW,338,1.1,2.5,83,0.00,,OVC015,0.00,VWS V14.01,2013-03-25 10:20:00,
2013-03-25 05:25:00,20.1,16.0,30.08,NNW,338,1.3,1.6,84,0.00,,OVC015,0.00,VWS V14.01,2013-03-25 10:25:00,
2013-03-25 05:30:00,20.1,15.8,30.08,NNW,338,2.0,4.5,83,0.00,,OVC015,0.00,VWS V14.01,2013-03-25 10:30:00,
2013-03-25 05:35:00,20.1,15.8,30.08,NNW,338,2.7,2.7,83,0.00,,OVC015,0.00,VWS V14.01,2013-03-25 10:35:00,
2013-03-25 05:40:00,20.1,15.8,30.08,NNW,338,0.4,2.7,83,0.00,,OVC015,0.00,VWS V14.01,2013-03-25 10:40:00,
2013-03-25 05:45:00,20.1,15.8,30.08,NNW,338,2.5,2.5,83,0.00,,OVC015,0.00,VWS V14.01,2013-03-25 10:45:00,
2013-03-25 05:50:00,19.9,15.9,30.08,NNW,338,3.4,3.4,84,0.00,,OVC015,0.00,VWS V14.01,2013-03-25 10:50:00,
2013-03-25 05:55:00,19.9,15.9,30.08,NNW,338,0.9,3.4,84,0.00,,OVC015,0.00,VWS V14.01,2013-03-25 10:55:00,
2013-03-25 06:05:00,20.1,16.0,30.08,NNW,338,0.4,1.8,84,0.00,,OVC015,0.00,VWS V14.01,2013-03-25 11:05:00,
2013-03-25 06:10:00,20.1,16.0,30.08,NNW,338,2.2,2.2,84,0.00,,OVC015,0.00,VWS V14.01,2013-03-25 11:10:00,
2013-03-25 06:15:00,20.1,16.0,30.08,NNW,338,1.8,2.2,84,0.00,,OVC015,0.00,VWS V14.01,2013-03-25 11:15:00,
2013-03-25 06:20:00,20.1,16.0,30.08,NNW,338,1.8,2.5,84,0.00,,OVC015,0.00,VWS V14.01,2013-03-25 11:20:00,
2013-03-25 06:25:00,20.1,16.0,30.09,NNW,338,0.9,1.8,84,0.00,,OVC015,0.00,VWS V14.01,2013-03-25 11:25:00,
2013-03-25 06:30:00,20.3,16.2,30.09,NNW,338,0.9,4.3,84,0.00,,OVC015,0.00,VWS V14.01,2013-03-25 11:30:00,
2013-03-25 06:35:00,20.3,16.5,30.09,NNW,338,1.3,1.3,85,0.00,,OVC015,0.00,VWS V14.01,2013-03-25 11:35:00,
2013-03-25 06:40:00,20.5,16.7,30.09,NNW,338,0.4,2.0,85,0.00,,OVC015,0.00,VWS V14.01,2013-03-25 11:40:00,
2013-03-25 06:45:00,20.5,16.7,30.09,NNW,338,1.6,2.5,85,0.00,,OVC015,0.00,VWS V14.01,2013-03-25 11:45:00,
2013-03-25 06:50:00,20.5,16.7,30.09,NNW,338,4.0,4.0,85,0.00,,OVC015,0.00,VWS V14.01,2013-03-25 11:50:00,
2013-03-25 06:55:00,20.6,16.8,30.10,NNW,338,1.1,4.0,85,0.00,,OVC015,0.00,VWS V14.01,2013-03-25 11:55:00,
2013-03-25 07:05:00,20.8,17.0,30.10,NNW,338,1.3,1.3,85,0.00,,OVC015,0.00,VWS V14.01,2013-03-25 12:05:00,
2013-03-25 07:10:00,20.8,17.0,30.10,NNW,338,0.4,3.4,85,0.00,,OVC015,0.00,VWS V14.01,2013-03-25 12:10:00,
2013-03-25 07:15:00,20.8,17.0,30.10,NNW,338,0.4,2.0,85,0.00,,OVC013,0.00,VWS V14.01,2013-03-25 12:15:00,
2013-03-25 07:20:00,21.0,17.2,30.10,NNW,338,1.1,2.0,85,0.00,,OVC013,0.00,VWS V14.01,2013-03-25 12:20:00,
2013-03-25 07:25:00,21.0,17.2,30.10,NNW,338,2.2,2.2,85,0.00,,OVC013,0.00,VWS V14.01,2013-03-25 12:25:00,
2013-03-25 07:30:00,21.0,17.2,30.11,NNW,338,0.7,3.4,85,0.00,,OVC013,0.00,VWS V14.01,2013-03-25 12:30:00,
2013-03-25 07:35:00,21.2,17.4,30.11,NNW,338,2.2,2.2,85,0.00,,OVC013,0.00,VWS V14.01,2013-03-25 12:35:00,
2013-03-25 07:40:00,21.4,17.6,30.11,NNW,338,3.4,3.4,85,0.00,,OVC013,0.00,VWS V14.01,2013-03-25 12:40:00,
2013-03-25 07:45:00,21.5,17.7,30.11,NNW,338,2.2,3.4,85,0.00,,OVC013,0.00,VWS V14.01,2013-03-25 12:45:00,
2013-03-25 07:50:00,21.7,17.9,30.11,NNW,338,4.0,4.0,85,0.00,,OVC013,0.00,VWS V14.01,2013-03-25 12:50:00,
2013-03-25 07:55:00,21.7,17.9,30.11,NNW,338,1.8,4.0,85,0.00,,OVC013,0.00,VWS V14.01,2013-03-25 12:55:00,
2013-03-25 08:05:00,22.1,18.6,30.12,NNW,338,1.6,2.2,86,0.00,,OVC013,0.00,VWS V14.01,2013-03-25 13:05:00,
2013-03-25 08:10:00,22.4,18.9,30.12,NNW,338,1.1,1.6,86,0.00,,OVC013,0.00,VWS V14.01,2013-03-25 13:10:00,
2013-03-25 08:15:00,22.4,18.9,30.13,NNW,338,1.1,1.8,86,0.00,,,0.00,VWS V14.01,2013-03-25 13:15:00,
2013-03-25 08:20:00,22.6,19.0,30.13,NNW,338,0.7,2.9,86,0.00,,,0.00,VWS V14.01,2013-03-25 13:20:00,
2013-03-25 08:25:00,23.0,19.5,30.13,NNW,338,0.7,2.5,86,0.00,,,0.00,VWS V14.01,2013-03-25 13:25:00,
2013-03-25 08:30:00,23.2,19.6,30.13,NNW,338,1.6,1.6,86,0.00,,,0.00,VWS V14.01,2013-03-25 13:30:00,
2013-03-25 08:35:00,23.5,19.9,30.13,NNW,338,1.6,4.0,86,0.00,,,0.00,VWS V14.01,2013-03-25 13:35:00,
2013-03-25 08:40:00,23.7,20.1,30.14,NNW,338,3.4,3.4,86,0.00,,,0.00,VWS V14.01,2013-03-25 13:40:00,
2013-03-25 08:45:00,23.9,20.3,30.14,NNW,338,2.2,3.4,86,0.00,,,0.00,VWS V14.01,2013-03-25 13:45:00,
2013-03-25 08:50:00,24.1,20.5,30.14,NNW,338,0.9,2.2,86,0.00,,,0.00,VWS V14.01,2013-03-25 13:50:00,
2013-03-25 08:55:00,24.2,20.6,30.14,NNW,338,3.4,3.4,86,0.00,,,0.00,VWS V14.01,2013-03-25 13:55:00,
2013-03-25 09:05:00,24.6,21.0,30.15,NNW,338,0.7,1.8,86,0.00,,,0.00,VWS V14.01,2013-03-25 14:05:00,
2013-03-25 09:10:00,24.8,21.2,30.15,NNW,338,0.4,3.8,86,0.00,,,0.00,VWS V14.01,2013-03-25 14:10:00,
2013-03-25 09:15:00,25.0,21.1,30.15,NNW,338,2.9,3.6,85,0.00,,,0.00,VWS V14.01,2013-03-25 14:15:00,
2013-03-25 09:20:00,25.1,21.2,30.15,NNW,338,0.9,2.9,85,0.00,,,0.00,VWS V14.01,2013-03-25 14:20:00,
2013-03-25 09:25:00,25.1,21.2,30.15,NNW,338,2.2,2.5,85,0.00,,,0.00,VWS V14.01,2013-03-25 14:25:00,
2013-03-25 09:30:00,25.3,21.4,30.16,NNW,338,1.1,3.8,85,0.00,,,0.00,VWS V14.01,2013-03-25 14:30:00,
2013-03-25 09:35:00,25.3,21.4,30.16,NNW,338,0.9,1.1,85,0.00,,,0.00,VWS V14.01,2013-03-25 14:35:00,
2013-03-25 09:40:00,25.5,21.6,30.16,NNW,338,0.7,4.0,85,0.00,,,0.00,VWS V14.01,2013-03-25 14:40:00,
2013-03-25 09:45:00,25.5,21.6,30.16,NNW,338,1.1,2.5,85,0.00,,,0.00,VWS V14.01,2013-03-25 14:45:00,
2013-03-25 09:50:00,25.7,21.8,30.16,NNW,338,1.8,2.5,85,0.00,,,0.00,VWS V14.01,2013-03-25 14:50:00,
2013-03-25 09:55:00,25.9,22.3,30.17,NNW,338,2.2,3.1,86,0.00,,,0.00,VWS V14.01,2013-03-25 14:55:00,
2013-03-25 10:05:00,26.0,22.1,30.17,NNW,338,1.3,4.9,85,0.00,,,0.00,VWS V14.01,2013-03-25 15:05:00,
2013-03-25 10:10:00,26.2,22.3,30.17,NNW,338,1.3,1.8,85,0.00,,,0.00,VWS V14.01,2013-03-25 15:10:00,
2013-03-25 10:15:00,26.4,22.5,30.18,NNW,338,0.9,3.8,85,0.00,,,0.00,VWS V14.01,2013-03-25 15:15:00,
2013-03-25 10:20:00,26.4,22.5,30.18,NNW,338,2.9,2.9,85,0.00,,,0.00,VWS V14.01,2013-03-25 15:20:00,
2013-03-25 10:25:00,26.4,22.5,30.18,NNW,338,0.9,3.1,85,0.00,,,0.00,VWS V14.01,2013-03-25 15:25:00,
2013-03-25 10:30:00,26.8,22.6,30.18,NNW,338,1.1,3.8,84,0.00,,,0.00,VWS V14.01,2013-03-25 15:30:00,
2013-03-25 10:35:00,26.8,22.6,30.18,NNW,338,0.7,4.3,84,0.00,,,0.00,VWS V14.01,2013-03-25 15:35:00,
2013-03-25 10:40:00,26.8,22.6,30.18,NNW,338,1.1,3.1,84,0.00,,,0.00,VWS V14.01,2013-03-25 15:40:00,
2013-03-25 10:50:00,27.1,22.9,30.19,NNW,338,1.6,3.8,84,0.00,,,0.00,VWS V14.01,2013-03-25 15:50:00,
2013-03-25 10:55:00,27.1,22.6,30.19,NNW,338,1.6,1.8,83,0.00,,,0.00,VWS V14.01,2013-03-25 15:55:00,
2013-03-25 11:05:00,27.3,22.8,30.19,NNW,338,2.0,5.8,83,0.00,,,0.00,VWS V14.01,2013-03-25 16:05:00,
2013-03-25 11:10:00,27.5,23.0,30.19,NNW,338,2.5,2.5,83,0.00,,,0.00,VWS V14.01,2013-03-25 16:10:00,
2013-03-25 11:15:00,27.8,23.3,30.20,NNW,338,1.3,4.9,83,0.00,,OVC017,0.00,VWS V14.01,2013-03-25 16:15:00,
2013-03-25 11:20:00,27.8,23.3,30.20,NNW,338,2.0,2.5,83,0.00,,OVC017,0.00,VWS V14.01,2013-03-25 16:20:00,
2013-03-25 11:25:00,27.8,23.0,30.20,NNW,338,2.0,2.7,82,0.00,,OVC017,0.00,VWS V14.01,2013-03-25 16:25:00,
2013-03-25 11:35:00,28.0,23.2,30.20,NNW,338,1.3,4.9,82,0.00,,OVC017,0.00,VWS V14.01,2013-03-25 16:35:00,
2013-03-25 11:40:00,28.2,23.1,30.20,NNW,338,1.1,1.6,81,0.00,,OVC017,0.00,VWS V14.01,2013-03-25 16:40:00,
2013-03-25 11:45:00,28.4,23.3,30.20,NNW,338,2.5,2.5,81,0.00,,OVC017,0.00,VWS V14.01,2013-03-25 16:45:00,
2013-03-25 11:50:00,28.2,23.1,30.20,NNW,338,1.8,4.3,81,0.00,,OVC017,0.00,VWS V14.01,2013-03-25 16:50:00,
2013-03-25 11:55:00,28.4,23.0,30.20,NNW,338,2.2,4.7,80,0.00,,OVC017,0.00,VWS V14.01,2013-03-25 16:55:00,
2013-03-25 12:05:00,28.9,23.5,30.20,NNW,338,1.3,2.5,80,0.00,,OVC017,0.00,VWS V14.01,2013-03-25 17:05:00,
2013-03-25 12:10:00,28.9,23.5,30.20,NNW,338,1.8,4.3,80,0.00,,OVC017,0.00,VWS V14.01,2013-03-25 17:10:00,
2013-03-25 12:15:00,28.9,23.2,30.20,NNW,338,1.8,3.8,79,0.00,,OVC023,0.00,VWS V14.01,2013-03-25 17:15:00,
2013-03-25 12:20:00,29.3,23.6,30.21,NNW,338,1.1,1.1,79,0.00,,OVC023,0.00,VWS V14.01,2013-03-25 17:20:00,
2013-03-25 12:25:00,29.3,23.6,30.21,NNW,338,1.1,4.7,79,0.00,,OVC023,0.00,VWS V14.01,2013-03-25 17:25:00,
2013-03-25 12:30:00,29.6,23.9,30.20,NNW,338,3.8,3.8,79,0.00,,OVC023,0.00,VWS V14.01,2013-03-25 17:30:00,
2013-03-25 12:35:00,29.8,24.4,30.21,NNW,338,2.0,4.7,80,0.00,,OVC023,0.00,VWS V14.01,2013-03-25 17:35:00,
2013-03-25 12:40:00,29.8,24.1,30.21,NNW,338,1.6,4.7,79,0.00,,OVC023,0.00,VWS V14.01,2013-03-25 17:40:00,
2013-03-25 12:45:00,30.0,24.3,30.21,NNW,338,0.4,1.8,79,0.00,,OVC023,0.00,VWS V14.01,2013-03-25 17:45:00,
2013-03-25 12:50:00,30.0,24.3,30.21,NNW,338,2.0,2.2,79,0.00,,OVC023,0.00,VWS V14.01,2013-03-25 17:50:00,
2013-03-25 12:55:00,30.0,24.0,30.21,NNW,338,1.6,2.0,78,0.00,,OVC023,0.00,VWS V14.01,2013-03-25 17:55:00,
2013-03-25 13:05:00,30.4,24.4,30.21,NNW,338,3.4,4.5,78,0.00,,OVC023,0.00,VWS V14.01,2013-03-25 18:05:00,
2013-03-25 13:10:00,30.5,24.5,30.21,NNW,338,1.1,3.4,78,0.00,,OVC023,0.00,VWS V14.01,2013-03-25 18:10:00,
2013-03-25 13:15:00,30.5,24.5,30.21,NNW,338,2.5,3.8,78,0.01,,OVC023,0.01,VWS V14.01,2013-03-25 18:15:00,
2013-03-25 13:20:00,30.7,24.7,30.21,NNW,338,3.4,3.4,78,0.01,,OVC023,0.01,VWS V14.01,2013-03-25 18:20:00,
2013-03-25 13:25:00,30.7,24.7,30.21,NNW,338,0.4,3.4,78,0.01,,OVC023,0.01,VWS V14.01,2013-03-25 18:25:00,
2013-03-25 13:30:00,30.7,24.7,30.21,NNW,338,2.5,2.5,78,0.01,,OVC023,0.01,VWS V14.01,2013-03-25 18:30:00,
2013-03-25 13:35:00,30.9,24.5,30.21,NNW,338,1.1,2.2,77,0.01,,OVC023,0.01,VWS V14.01,2013-03-25 18:35:00,
2013-03-25 13:40:00,30.9,24.5,30.21,NNW,338,4.0,4.0,77,0.01,,OVC023,0.01,VWS V14.01,2013-03-25 18:40:00,
2013-03-25 13:50:00,31.1,24.8,30.21,NNW,338,0.9,1.8,77,0.01,,OVC023,0.01,VWS V14.01,2013-03-25 18:50:00,
2013-03-25 13:55:00,31.1,24.8,30.22,NNW,338,0.7,3.8,77,0.01,,OVC023,0.01,VWS V14.01,2013-03-25 18:55:00,
2013-03-25 14:05:00,31.1,24.8,30.22,NNW,338,2.9,2.9,77,0.01,,OVC023,0.01,VWS V14.01,2013-03-25 19:05:00,
2013-03-25 14:10:00,30.9,24.5,30.22,NNW,338,2.5,2.9,77,0.01,,OVC023,0.01,VWS V14.01,2013-03-25 19:10:00,
2013-03-25 14:15:00,30.9,24.2,30.21,NNW,338,1.1,2.5,76,0.01,,OVC026,0.01,VWS V14.01,2013-03-25 19:15:00,
2013-03-25 14:20:00,31.3,24.9,30.21,NNW,338,1.8,4.9,77,0.00,,OVC026,0.01,VWS V14.01,2013-03-25 19:20:00,
2013-03-25 14:25:00,31.8,25.1,30.21,NNW,338,3.1,4.0,76,0.00,,OVC026,0.01,VWS V14.01,2013-03-25 19:25:00,
2013-03-25 14:30:00,32.2,25.5,30.21,NNW,338,2.2,3.4,76,0.00,,OVC026,0.01,VWS V14.01,2013-03-25 19:30:00,
2013-03-25 14:35:00,32.3,25.6,30.21,NNW,338,0.9,2.2,76,0.01,,OVC026,0.02,VWS V14.01,2013-03-25 19:35:00,
2013-03-25 14:40:00,32.5,25.8,30.21,NNW,338,1.1,1.3,76,0.01,,OVC026,0.02,VWS V14.01,2013-03-25 19:40:00,
2013-03-25 14:45:00,32.2,25.2,30.21,NNW,338,2.7,2.7,75,0.01,,OVC026,0.02,VWS V14.01,2013-03-25 19:45:00,
2013-03-25 14:50:00,32.0,24.7,30.21,NNE,22,1.8,2.7,74,0.02,,OVC026,0.03,VWS V14.01,2013-03-25 19:50:00,
2013-03-25 14:55:00,32.2,24.9,30.21,NW,315,2.5,2.5,74,0.02,,OVC026,0.03,VWS V14.01,2013-03-25 19:55:00,
2013-03-25 15:05:00,32.5,25.1,30.21,NNW,338,0.9,2.2,74,0.02,,OVC026,0.03,VWS V14.01,2013-03-25 20:05:00,
2013-03-25 15:10:00,32.5,25.1,30.21,NNE,22,2.5,3.6,74,0.02,,OVC026,0.03,VWS V14.01,2013-03-25 20:10:00,
2013-03-25 15:15:00,32.5,24.8,30.21,NW,315,1.3,2.5,73,0.03,,OVC045,0.04,VWS V14.01,2013-03-25 20:15:00,
2013-03-25 15:20:00,32.5,24.8,30.21,WNW,292,1.1,1.3,73,0.03,,OVC045,0.04,VWS V14.01,2013-03-25 20:20:00,
2013-03-25 15:25:00,32.3,24.6,30.21,NNW,338,1.6,2.2,73,0.03,,OVC045,0.04,VWS V14.01,2013-03-25 20:25:00,
2013-03-25 15:30:00,32.3,24.6,30.21,NW,315,1.6,3.4,73,0.03,,OVC045,0.04,VWS V14.01,2013-03-25 20:30:00,
2013-03-25 15:35:00,32.2,24.5,30.21,NNE,22,1.8,3.6,73,0.03,,OVC045,0.04,VWS V14.01,2013-03-25 20:35:00,
2013-03-25 15:40:00,32.0,24.3,30.21,NNE,22,3.8,5.1,73,0.02,,OVC045,0.04,VWS V14.01,2013-03-25 20:40:00,
2013-03-25 15:45:00,31.8,24.1,30.21,NNW,338,1.6,3.8,73,0.02,,OVC045,0.04,VWS V14.01,2013-03-25 20:45:00,
2013-03-25 15:50:00,31.8,24.1,30.21,NW,315,4.7,4.7,73,0.02,,OVC045,0.04,VWS V14.01,2013-03-25 20:50:00,
2013-03-25 15:55:00,31.8,24.1,30.21,WNW,292,1.1,4.7,73,0.02,,OVC045,0.05,VWS V14.01,2013-03-25 20:55:00,
2013-03-25 16:05:00,31.6,24.0,30.22,NW,315,1.8,2.5,73,0.02,,OVC045,0.05,VWS V14.01,2013-03-25 21:05:00,
2013-03-25 16:10:00,31.4,23.8,30.22,ENE,68,0.7,2.9,73,0.02,,OVC045,0.05,VWS V14.01,2013-03-25 21:10:00,
2013-03-25 16:15:00,31.4,23.8,30.22,NW,315,4.0,4.0,73,0.02,,OVC039,0.05,VWS V14.01,2013-03-25 21:15:00,
2013-03-25 16:20:00,31.4,23.8,30.22,NNW,338,4.0,4.0,73,0.01,,OVC039,0.05,VWS V14.01,2013-03-25 21:20:00,
2013-03-25 16:25:00,31.4,23.8,30.23,North,0,0.9,4.3,73,0.01,,OVC039,0.05,VWS V14.01,2013-03-25 21:25:00,
2013-03-25 16:30:00,31.6,24.3,30.22,NW,315,1.3,2.5,74,0.01,,OVC039,0.05,VWS V14.01,2013-03-25 21:30:00,
2013-03-25 16:35:00,31.6,24.0,30.23,NW,315,2.2,3.8,73,0.01,,OVC039,0.05,VWS V14.01,2013-03-25 21:35:00,
2013-03-25 16:40:00,31.4,23.8,30.23,North,0,1.3,2.7,73,0.02,,OVC039,0.06,VWS V14.01,2013-03-25 21:40:00,
2013-03-25 16:45:00,31.4,24.1,30.23,NNW,338,2.2,2.2,74,0.02,,OVC039,0.06,VWS V14.01,2013-03-25 21:45:00,
2013-03-25 16:50:00,31.6,24.3,30.23,ENE,68,4.0,4.0,74,0.02,,OVC039,0.06,VWS V14.01,2013-03-25 21:50:00,
2013-03-25 16:55:00,31.8,24.5,30.23,NNW,338,1.3,4.0,74,0.02,,OVC039,0.06,VWS V14.01,2013-03-25 21:55:00,
2013-03-25 17:00:00,31.6,24.3,30.23,NNW,338,2.2,2.2,74,0.01,,OVC039,0.06,VWS V14.01,2013-03-25 22:00:00,
2013-03-25 17:10:00,31.3,24.0,30.23,ENE,68,1.1,1.8,74,0.01,,OVC039,0.06,VWS V14.01,2013-03-25 22:10:00,
2013-03-25 17:15:00,31.1,23.8,30.24,NW,315,1.1,1.8,74,0.01,,OVC047,0.06,VWS V14.01,2013-03-25 22:15:00,
2013-03-25 17:20:00,30.9,23.6,30.24,NW,315,1.1,2.5,74,0.01,,OVC047,0.06,VWS V14.01,2013-03-25 22:20:00,
2013-03-25 17:30:00,30.4,23.8,30.24,North,0,0.4,2.2,76,0.01,,OVC047,0.06,VWS V14.01,2013-03-25 22:30:00,
2013-03-25 17:35:00,30.2,23.6,30.25,ENE,68,0.4,2.2,76,0.01,,OVC047,0.06,VWS V14.01,2013-03-25 22:35:00,
2013-03-25 17:40:00,30.2,23.6,30.25,NE,45,0.9,1.3,76,0.01,,OVC047,0.06,VWS V14.01,2013-03-25 22:40:00,
2013-03-25 17:45:00,30.0,23.7,30.25,NNW,338,0.0,1.1,77,0.00,,OVC047,0.06,VWS V14.01,2013-03-25 22:45:00,
2013-03-25 17:50:00,29.8,23.5,30.25,NE,45,0.4,0.4,77,0.00,,OVC047,0.06,VWS V14.01,2013-03-25 22:50:00,
2013-03-25 17:55:00,29.8,23.8,30.25,NW,315,0.7,0.9,78,0.00,,OVC047,0.06,VWS V14.01,2013-03-25 22:55:00,
2013-03-25 18:00:00,29.8,23.8,30.25,NE,45,1.1,1.1,78,0.00,,OVC047,0.06,VWS V14.01,2013-03-25 23:00:00,
2013-03-25 18:10:00,29.6,23.9,30.25,NNW,338,0.7,1.1,79,0.00,,OVC047,0.06,VWS V14.01,2013-03-25 23:10:00,
2013-03-25 18:15:00,29.5,23.5,30.25,ENE,68,0.9,1.6,78,0.00,,,0.06,VWS V14.01,2013-03-25 23:15:00,
2013-03-25 18:20:00,29.3,23.6,30.26,North,0,0.7,1.8,79,0.00,,,0.06,VWS V14.01,2013-03-25 23:20:00,
2013-03-25 18:25:00,28.9,23.2,30.26,NNW,338,0.2,0.7,79,0.00,,,0.06,VWS V14.01,2013-03-25 23:25:00,
2013-03-25 18:30:00,28.9,23.2,30.25,NNW,338,0.9,2.0,79,0.01,,,0.07,VWS V14.01,2013-03-25 23:30:00,
2013-03-25 18:35:00,28.9,23.2,30.25,WNW,292,0.4,1.1,79,0.01,,,0.07,VWS V14.01,2013-03-25 23:35:00,
2013-03-25 18:40:00,28.9,23.2,30.25,NNW,338,0.9,3.1,79,0.01,,,0.07,VWS V14.01,2013-03-25 23:40:00,
2013-03-25 18:45:00,28.9,23.5,30.26,ENE,68,1.1,1.1,80,0.01,,,0.07,VWS V14.01,2013-03-25 23:45:00,
2013-03-25 18:50:00,28.9,23.5,30.26,North,0,0.4,1.1,80,0.01,,,0.07,VWS V14.01,2013-03-25 23:50:00,
2013-03-25 18:55:00,28.9,23.5,30.26,NE,45,1.8,2.9,80,0.01,,,0.07,VWS V14.01,2013-03-25 23:55:00,
2013-03-25 19:00:00,28.9,23.2,30.26,NNE,22,1.1,1.1,79,0.01,,,0.07,VWS V14.01,2013-03-26 00:00:00,
2013-03-25 19:10:00,28.7,23.3,30.27,NW,315,2.7,2.7,80,0.01,,,0.07,VWS V14.01,2013-03-26 00:10:00,
2013-03-25 19:15:00,28.6,23.2,30.27,North,0,0.4,2.7,80,0.01,,,0.07,VWS V14.01,2013-03-26 00:15:00,
2013-03-25 19:20:00,28.6,23.2,30.27,NNW,338,0.2,2.9,80,0.01,,,0.07,VWS V14.01,2013-03-26 00:20:00,
2013-03-25 19:25:00,28.4,23.0,30.27,NW,315,0.2,2.2,80,0.01,,,0.07,VWS V14.01,2013-03-26 00:25:00,
2013-03-25 19:30:00,28.4,23.0,30.27,NNE,22,0.4,1.1,80,0.01,,,0.07,VWS V14.01,2013-03-26 00:30:00,
2013-03-25 19:35:00,28.2,22.8,30.27,WSW,248,1.3,1.3,80,0.00,,,0.07,VWS V14.01,2013-03-26 00:35:00,
2013-03-25 19:40:00,28.2,22.8,30.28,NE,45,1.1,1.1,80,0.00,,,0.07,VWS V14.01,2013-03-26 00:40:00,
2013-03-25 19:50:00,28.0,22.6,30.28,NNW,338,0.9,1.8,80,0.00,,,0.07,VWS V14.01,2013-03-26 00:50:00,
2013-03-25 19:55:00,28.0,22.9,30.28,NW,315,1.1,2.2,81,0.00,,,0.07,VWS V14.01,2013-03-26 00:55:00,
2013-03-25 20:01:00,27.8,22.7,30.28,WNW,292,1.8,1.8,81,0.00,,,0.07,VWS V14.01,2013-03-26 01:01:00,
2013-03-25 20:10:00,27.8,22.7,30.29,East,90,1.6,2.5,81,0.00,,,0.07,VWS V14.01,2013-03-26 01:10:00,
2013-03-25 20:20:00,27.7,22.6,30.29,NNW,338,3.8,3.8,81,0.00,,OVC070,0.07,VWS V14.01,2013-03-26 01:20:00,
2013-03-25 20:25:00,27.5,22.5,30.29,NNW,338,0.2,3.8,81,0.00,,OVC070,0.07,VWS V14.01,2013-03-26 01:25:00,
2013-03-25 20:30:00,27.5,22.5,30.29,NNE,22,1.3,4.3,81,0.00,,OVC070,0.07,VWS V14.01,2013-03-26 01:30:00,
2013-03-25 20:35:00,27.5,22.5,30.29,North,0,0.0,1.3,81,0.00,,OVC070,0.07,VWS V14.01,2013-03-26 01:35:00,
2013-03-25 20:40:00,27.5,22.5,30.29,NW,315,0.4,0.4,81,0.00,,OVC070,0.07,VWS V14.01,2013-03-26 01:40:00,
2013-03-25 20:45:00,27.3,22.2,30.30,North,0,0.7,0.9,81,0.00,,OVC070,0.07,VWS V14.01,2013-03-26 01:45:00,
2013-03-25 20:50:00,27.3,22.2,30.30,North,0,0.9,1.1,81,0.00,,OVC070,0.07,VWS V14.01,2013-03-26 01:50:00,
2013-03-25 20:55:00,27.3,22.2,30.30,North,0,0.4,0.9,81,0.00,,OVC070,0.07,VWS V14.01,2013-03-26 01:55:00,
2013-03-25 21:01:00,27.1,22.1,30.30,North,0,0.2,0.4,81,0.00,,OVC070,0.07,VWS V14.01,2013-03-26 02:01:00,
2013-03-25 21:10:00,27.1,22.1,30.30,NNW,338,1.6,1.6,81,0.00,,OVC070,0.07,VWS V14.01,2013-03-26 02:10:00,
2013-03-25 21:15:00,27.1,22.1,30.30,North,0,0.2,1.6,81,0.00,,OVC070,0.07,VWS V14.01,2013-03-26 02:15:00,
2013-03-25 21:20:00,26.9,21.9,30.30,NW,315,0.9,1.1,81,0.00,,OVC070,0.07,VWS V14.01,2013-03-26 02:20:00,
2013-03-25 21:25:00,26.9,21.9,30.31,North,0,0.4,1.6,81,0.00,,OVC070,0.07,VWS V14.01,2013-03-26 02:25:00,
2013-03-25 21:30:00,26.9,21.9,30.31,North,0,0.2,0.4,81,0.00,,CLR,0.07,VWS V14.01,2013-03-26 02:30:00,
2013-03-25 21:35:00,26.9,21.9,30.31,North,0,0.0,0.4,81,0.00,,CLR,0.07,VWS V14.01,2013-03-26 02:35:00,
2013-03-25 21:40:00,26.9,21.9,30.31,NW,315,0.7,0.7,81,0.00,,CLR,0.07,VWS V14.01,2013-03-26 02:40:00,
2013-03-25 21:45:00,26.9,21.9,30.31,NNW,338,0.4,0.9,81,0.00,,CLR,0.07,VWS V14.01,2013-03-26 02:45:00,
2013-03-25 21:50:00,26.9,22.1,30.31,North,0,0.0,0.9,82,0.00,,CLR,0.07,VWS V14.01,2013-03-26 02:50:00,
2013-03-25 22:00:00,26.8,21.8,30.31,North,0,0.0,0.4,81,0.00,,CLR,0.07,VWS V14.01,2013-03-26 03:00:00,
2013-03-25 22:05:00,26.8,21.8,30.31,North,0,0.2,0.4,81,0.00,,CLR,0.07,VWS V14.01,2013-03-26 03:05:00,
2013-03-25 22:10:00,26.8,21.8,30.32,North,0,0.0,1.1,81,0.00,,CLR,0.07,VWS V14.01,2013-03-26 03:10:00,
2013-03-25 22:15:00,26.8,21.8,30.32,ENE,68,0.0,0.4,81,0.00,,CLR,0.07,VWS V14.01,2013-03-26 03:15:00,
2013-03-25 22:20:00,26.8,21.8,30.32,NNW,338,0.7,1.8,81,0.00,,CLR,0.07,VWS V14.01,2013-03-26 03:20:00,
2013-03-25 22:25:00,26.8,21.8,30.32,NNW,338,1.6,1.6,81,0.00,,CLR,0.07,VWS V14.01,2013-03-26 03:25:00,
2013-03-25 22:30:00,26.8,21.8,30.32,North,0,0.4,1.8,81,0.00,,CLR,0.07,VWS V14.01,2013-03-26 03:30:00,
2013-03-25 22:35:00,26.8,21.8,30.32,North,0,0.0,1.6,81,0.00,,CLR,0.07,VWS V14.01,2013-03-26 03:35:00,
2013-03-25 22:40:00,26.8,21.8,30.32,NNW,338,2.2,2.2,81,0.00,,CLR,0.07,VWS V14.01,2013-03-26 03:40:00,
2013-03-25 22:50:00,26.8,21.8,30.33,NNE,22,0.4,2.9,81,0.00,,CLR,0.07,VWS V14.01,2013-03-26 03:50:00,
2013-03-25 22:55:00,26.6,21.6,30.33,North,0,0.4,0.4,81,0.00,,CLR,0.07,VWS V14.01,2013-03-26 03:55:00,
2013-03-25 23:00:00,26.6,21.6,30.33,North,0,0.0,0.4,81,0.00,,CLR,0.07,VWS V14.01,2013-03-26 04:00:00,
2013-03-25 23:01:00,26.6,21.6,30.33,North,0,0.0,0.0,81,0.00,,CLR,0.07,VWS V14.01,2013-03-26 04:01:00,
2013-03-25 23:10:00,26.4,21.4,30.33,NNW,338,0.7,0.7,81,0.00,,CLR,0.07,VWS V14.01,2013-03-26 04:10:00,
2013-03-25 23:15:00,26.4,21.4,30.33,North,0,0.2,0.7,81,0.00,,FEW120,0.07,VWS V14.01,2013-03-26 04:15:00,
2013-03-25 23:20:00,26.2,21.2,30.33,NNW,338,0.0,2.0,81,0.00,,FEW120,0.07,VWS V14.01,2013-03-26 04:20:00,
2013-03-25 23:25:00,26.2,20.9,30.33,NNW,338,0.0,0.0,80,0.00,,FEW120,0.07,VWS V14.01,2013-03-26 04:25:00,
2013-03-25 23:30:00,26.0,20.7,30.33,North,0,0.7,0.7,80,0.00,,FEW120,0.07,VWS V14.01,2013-03-26 04:30:00,
2013-03-25 23:35:00,26.0,20.7,30.33,North,0,0.0,1.8,80,0.00,,FEW120,0.07,VWS V14.01,2013-03-26 04:35:00,
2013-03-25 23:40:00,26.0,20.7,30.33,NNE,22,0.0,0.4,80,0.00,,FEW120,0.07,VWS V14.01,2013-03-26 04:40:00,
2013-03-25 23:50:00,25.7,20.4,30.33,North,0,0.2,0.7,80,0.00,,FEW120,0.07,VWS V14.01,2013-03-26 04:50:00,
2013-03-25 23:55:00,25.5,20.2,30.33,North,0,0.0,0.2,80,0.00,,FEW120,0.07,VWS V14.01,2013-03-26 04:55:00,